CW9560 Weather Reports


Display with metric or nautical units.
time (UTC)temp
F
wind
direction
speed
MPH
gust
MPH
rain 1hr
in
rain 24hr
in
rain mn
in
humidity
%
barometer
mb
20181120073524 43 70 13.0 20.0 0.03 0.03 0.03 80 1024.0
20181120073025 42 61 7.0 13.0 0.03 0.03 0.03 80 1024.0
20181120072524 42 38 6.0 12.0 0.03 0.03 0.03 80 1024.0
20181120072025 42 62 3.0 13.0 0.03 0.03 0.03 80 1024.1
20181120071524 42 91 6.0 13.0 0.03 0.03 0.03 80 1024.3
20181120071025 42 89 5.0 14.0 0.02 0.02 0.02 80 1024.3
20181120070524 43 90 8.0 14.0 0.02 0.02 0.02 80 1024.3
20181120070024 43 87 7.0 14.0 0.02 0.02 0.02 80 1024.3
20181120065523 43 69 5.0 14.0 0.02 0.02 0.02 79 1024.2
20181120065025 43 85 11.0 16.0 0.01 0.01 0.01 79 1024.3
20181120064524 44 78 8.0 17.0 0.01 0.01 0.01 78 1024.2
20181120064025 44 77 11.0 20.0 0.00 0.00 0.00 76 1024.2
20181120063524 44 81 13.0 20.0 0.00 0.00 0.00 75 1024.1
20181120063024 44 77 11.0 26.0 0.00 0.00 0.00 75 1024.1
20181120062524 44 74 13.0 26.0 0.00 0.00 0.00 75 1024.1
20181120062025 44 70 12.0 26.0 0.00 0.00 0.00 76 1024.1
20181120061524 44 78 11.0 26.0 0.00 0.00 0.00 77 1024.1
20181120061024 44 76 14.0 21.0 0.00 0.00 0.00 76 1024.2
20181120060525 44 62 12.0 23.0 0.00 0.00 0.00 75 1024.3
20181120060025 44 72 13.0 25.0 0.00 0.00 0.00 75 1024.3
20181120055524 44 93 12.0 25.0 0.00 0.00 0.00 74 1024.2
20181120055026 44 78 17.0 25.0 0.00 0.00 0.00 75 1024.1
20181120054524 44 86 12.0 21.0 0.00 0.00 0.00 75 1024.2
20181120054026 44 83 13.0 26.0 0.00 0.00 0.00 75 1024.1
20181120053524 44 93 15.0 26.0 0.00 0.00 0.00 75 1024.1
20181120053025 44 83 14.0 21.0 0.00 0.00 0.00 74 1024.2
20181120052524 44 73 14.0 23.0 0.00 0.00 0.00 73 1024.2
20181120052024 44 55 12.0 23.0 0.00 0.00 0.00 74 1024.2
20181120051524 44 75 12.0 20.0 0.00 0.00 0.00 74 1024.2
20181120051024 44 70 13.0 21.0 0.00 0.00 0.00 74 1024.3
20181120050524 44 78 14.0 21.0 0.00 0.00 0.00 76 1024.3
20181120050024 44 85 12.0 18.0 0.00 0.00 0.00 76 1024.4
20181120045524 44 75 11.0 16.0 0.00 0.00 0.00 78 1024.4
20181120045024 44 85 9.0 17.0 0.00 0.00 0.00 77 1024.6
20181120044524 44 89 12.0 20.0 0.00 0.00 0.00 75 1024.7
20181120044024 44 80 10.0 22.0 0.00 0.00 0.00 75 1024.6
20181120043523 44 84 13.0 22.0 0.00 0.00 0.00 75 1024.7
20181120043026 44 82 14.0 24.0 0.00 0.00 0.00 75 1024.7
20181120042524 44 83 14.0 26.0 0.00 0.00 0.00 76 1024.7
20181120042026 44 86 14.0 26.0 0.00 0.00 0.00 75 1024.8
20181120041524 44 81 11.0 24.0 0.00 0.00 0.00 74 1024.7
20181120041024 44 83 13.0 24.0 0.00 0.00 0.00 74 1024.7
20181120040524 44 83 14.0 23.0 0.00 0.00 0.00 75 1024.6
20181120040025 44 82 10.0 18.0 0.00 0.00 0.00 75 1024.8
20181120035523 44 76 9.0 18.0 0.00 0.00 0.00 76 1024.8
20181120035025 44 84 10.0 22.0 0.00 0.00 0.00 76 1024.9
20181120034524 44 84 10.0 22.0 0.00 0.00 0.00 76 1025.0
20181120034025 45 97 7.0 20.0 0.00 0.00 0.00 75 1025.0
20181120033524 45 84 12.0 20.0 0.00 0.00 0.00 75 1024.9
20181120033025 44 81 10.0 20.0 0.00 0.00 0.00 75 1024.9
20181120032524 44 85 13.0 21.0 0.00 0.00 0.00 75 1024.9
20181120032025 44 84 13.0 21.0 0.00 0.00 0.00 75 1025.0
20181120031524 44 82 15.0 24.0 0.00 0.00 0.00 76 1025.0
20181120031025 44 75 12.0 24.0 0.00 0.00 0.00 76 1025.1
20181120030524 44 70 11.0 21.0 0.00 0.00 0.00 76 1025.1
20181120030023 44 79 12.0 21.0 0.00 0.00 0.00 76 1025.0
20181120025523 44 49 8.0 22.0 0.00 0.00 0.00 76 1025.1
20181120025025 44 49 10.0 24.0 0.00 0.00 0.00 76 1025.1
20181120024524 44 69 14.0 24.0 0.00 0.00 0.00 76 1025.2
20181120024024 44 61 10.0 24.0 0.00 0.00 0.00 75 1025.2
20181120023524 44 53 13.0 21.0 0.00 0.00 0.00 75 1025.2
20181120023025 44 55 11.0 23.0 0.00 0.00 0.00 74 1025.2
20181120022524 44 45 13.0 23.0 0.00 0.00 0.00 76 1025.2
20181120022025 44 52 11.0 22.0 0.00 0.00 0.00 75 1025.3
20181120021523 44 64 13.0 22.0 0.00 0.00 0.00 74 1025.3
20181120021025 44 54 12.0 21.0 0.00 0.00 0.00 74 1025.5
20181120020524 44 75 14.0 24.0 0.00 0.00 0.00 74 1025.5
20181120020025 44 67 13.0 24.0 0.00 0.00 0.00 74 1025.5
20181120015523 44 78 9.0 23.0 0.00 0.00 0.00 75 1025.6
20181120015024 44 66 10.0 23.0 0.00 0.00 0.00 75 1025.7
20181120014524 44 68 10.0 20.0 0.00 0.00 0.00 76 1025.9
20181120014024 43 67 12.0 21.0 0.00 0.00 0.00 76 1025.9
20181120013523 43 81 13.0 21.0 0.00 0.00 0.00 77 1025.9
20181120013024 44 72 12.0 18.0 0.00 0.00 0.00 76 1025.9
20181120012524 44 80 11.0 21.0 0.00 0.00 0.00 75 1026.1
20181120012025 44 76 10.0 21.0 0.00 0.00 0.00 73 1026.1
20181120011523 44 84 11.0 26.0 0.00 0.00 0.00 72 1026.1
20181120011025 44 75 13.0 26.0 0.00 0.00 0.00 72 1026.2
20181120010525 44 64 10.0 23.0 0.00 0.00 0.00 70 1026.2
20181120010024 44 69 13.0 23.0 0.00 0.00 0.00 71 1026.2
20181120005523 44 77 13.0 23.0 0.00 0.00 0.00 71 1026.2
20181120005024 44 66 12.0 25.0 0.00 0.00 0.00 71 1026.3
20181120004524 44 81 12.0 26.0 0.00 0.00 0.00 71 1026.3
20181120004025 44 76 17.0 26.0 0.00 0.00 0.00 71 1026.4
20181120003525 44 81 13.0 22.0 0.00 0.00 0.00 70 1026.3
20181120003025 44 81 13.0 22.0 0.00 0.00 0.00 70 1026.3
20181120002523 44 79 14.0 22.0 0.00 0.00 0.00 70 1026.3
20181120002024 44 78 12.0 22.0 0.00 0.00 0.00 69 1026.3
20181120001524 44 84 13.0 20.0 0.00 0.00 0.00 70 1026.4
20181120001025 44 83 12.0 20.0 0.00 0.00 0.00 69 1026.5
20181120000524 44 90 13.0 20.0 0.00 0.00 0.00 70 1026.5
20181120000025 44 74 13.0 20.0 0.00 0.00 0.00 71 1026.6
20181119235523 43 82 14.0 20.0 0.00 0.00 0.00 71 1026.6
20181119235026 43 88 11.0 16.0 0.00 0.00 0.00 71 1026.5
20181119234524 43 91 12.0 16.0 0.00 0.00 0.00 70 1026.6
20181119234024 43 83 6.0 17.0 0.00 0.00 0.00 71 1026.6
20181119233524 44 91 12.0 17.0 0.00 0.00 0.00 70 1026.6
20181119233024 44 89 10.0 20.0 0.00 0.00 0.00 70 1026.7
20181119232524 44 90 12.0 20.0 0.00 0.00 0.00 70 1026.7
20181119232025 44 85 11.0 20.0 0.00 0.00 0.00 72 1026.6
20181119231523 44 84 13.0 21.0 0.00 0.00 0.00 73 1026.7
20181119231026 44 69 13.0 21.0 0.00 0.00 0.00 72 1026.7
20181119230524 44 87 12.0 21.0 0.00 0.00 0.00 72 1026.8
20181119230024 44 76 12.0 20.0 0.00 0.00 0.00 72 1026.9
20181119225524 44 88 12.0 20.0 0.00 0.00 0.00 71 1026.9
20181119225025 44 79 11.0 18.0 0.00 0.00 0.00 70 1026.9
20181119224524 44 77 11.0 20.0 0.00 0.00 0.00 69 1026.9
20181119224024 44 81 11.0 20.0 0.00 0.00 0.00 69 1026.9
20181119223523 44 71 10.0 17.0 0.00 0.00 0.00 70 1026.9
20181119223025 44 86 10.0 17.0 0.00 0.00 0.00 70 1026.9
20181119222524 44 75 8.0 17.0 0.00 0.00 0.00 72 1026.9
20181119222025 44 82 10.0 14.0 0.00 0.00 0.00 73 1026.9
20181119221524 44 83 7.0 14.0 0.00 0.00 0.00 74 1027.1
20181119221025 44 94 10.0 14.0 0.00 0.00 0.00 74 1027.2
20181119220524 44 83 8.0 14.0 0.00 0.00 0.00 75 1027.1
20181119220025 44 89 7.0 14.0 0.00 0.00 0.00 75 1027.2
20181119215523 44 89 8.0 13.0 0.00 0.00 0.00 76 1027.2
20181119215024 44 97 6.0 13.0 0.00 0.00 0.00 76 1027.2
20181119214523 44 96 7.0 16.0 0.00 0.00 0.00 77 1027.2
20181119214024 44 104 6.0 16.0 0.00 0.00 0.00 77 1027.2
20181119213524 44 86 6.0 13.0 0.00 0.00 0.00 78 1027.1
20181119213024 44 94 5.0 13.0 0.00 0.00 0.00 79 1027.1
20181119212524 43 99 7.0 13.0 0.00 0.00 0.00 79 1027.2
20181119212025 43 103 6.0 17.0 0.00 0.00 0.00 79 1027.2
20181119211523 44 107 6.0 20.0 0.00 0.00 0.00 79 1027.3
20181119211024 44 87 10.0 24.0 0.00 0.00 0.00 79 1027.4
20181119210523 44 89 12.0 24.0 0.00 0.00 0.00 79 1027.5
20181119210024 44 84 13.0 24.0 0.00 0.00 0.00 78 1027.6
20181119205523 44 89 9.0 23.0 0.00 0.00 0.00 77 1027.5
20181119205025 43 104 5.0 10.0 0.00 0.00 0.00 77 1027.4
20181119204523 44 76 6.0 13.0 0.00 0.00 0.00 77 1027.4
20181119204024 44 107 8.0 13.0 0.00 0.00 0.00 77 1027.6
20181119203524 44 114 4.0 12.0 0.00 0.00 0.00 76 1027.6
20181119203025 44 112 3.0 12.0 0.00 0.00 0.00 76 1027.5
20181119202523 44 120 3.0 12.0 0.00 0.00 0.00 75 1027.6
20181119202025 44 105 6.0 17.0 0.00 0.00 0.00 75 1027.5
20181119201524 44 84 6.0 17.0 0.00 0.00 0.00 75 1027.4
20181119201025 44 77 9.0 17.0 0.00 0.00 0.00 75 1027.4
20181119200523 44 76 10.0 17.0 0.00 0.00 0.00 74 1027.5
20181119200026 45 77 7.0 17.0 0.00 0.00 0.00 74 1027.5
20181119195524 45 96 11.0 17.0 0.00 0.00 0.00 73 1027.5
20181119195025 45 90 7.0 16.0 0.00 0.00 0.00 72 1027.5
20181119194524 45 83 8.0 14.0 0.00 0.00 0.00 72 1027.4
20181119194025 45 81 8.0 15.0 0.00 0.00 0.00 72 1027.4
20181119193524 45 84 8.0 15.0 0.00 0.00 0.00 72 1027.5
20181119193025 45 87 8.0 14.0 0.00 0.00 0.00 73 1027.5
20181119192524 45 99 7.0 14.0 0.00 0.00 0.00 73 1027.5
20181119192025 45 84 7.0 14.0 0.00 0.00 0.00 73 1027.5
20181119191523 45 99 6.0 15.0 0.00 0.00 0.00 74 1027.6
20181119191024 45 111 10.0 20.0 0.00 0.00 0.00 74 1027.7
20181119190524 45 88 12.0 20.0 0.00 0.00 0.00 74 1027.7
20181119190023 44 84 11.0 17.0 0.00 0.00 0.00 75 1027.7
20181119185523 44 85 9.0 14.0 0.00 0.00 0.00 76 1027.6
20181119185024 44 86 7.0 14.0 0.00 0.00 0.00 77 1027.6
20181119184524 44 79 6.0 13.0 0.00 0.00 0.00 78 1027.7
20181119184024 44 86 7.0 16.0 0.00 0.00 0.00 78 1027.7
20181119183524 44 86 10.0 16.0 0.00 0.00 0.00 79 1027.6
20181119183024 44 71 4.0 7.0 0.00 0.00 0.00 79 1027.7
20181119182523 44 89 3.0 12.0 0.00 0.00 0.00 80 1027.8
20181119182025 44 113 4.0 12.0 0.00 0.00 0.00 79 1027.8
20181119181524 44 81 7.0 16.0 0.00 0.00 0.00 79 1027.9
20181119181024 44 95 8.0 17.0 0.00 0.00 0.00 79 1027.8
20181119180523 45 112 9.0 21.0 0.00 0.00 0.00 78 1027.8
20181119180025 45 101 10.0 21.0 0.00 0.00 0.00 76 1027.8
20181119175524 45 92 10.0 16.0 0.00 0.00 0.00 76 1027.7
20181119175025 45 91 10.0 16.0 0.00 0.00 0.00 76 1027.7
20181119174523 45 84 10.0 16.0 0.00 0.00 0.00 76 1027.7
20181119174024 45 81 8.0 14.0 0.00 0.00 0.00 76 1027.7
20181119173524 45 93 9.0 15.0 0.00 0.00 0.00 77 1027.6
20181119173024 45 76 9.0 15.0 0.00 0.00 0.00 78 1027.6
20181119172524 45 73 4.0 10.0 0.00 0.00 0.00 78 1027.7
20181119172025 44 78 3.0 10.0 0.00 0.00 0.00 78 1027.7
20181119171523 44 87 6.0 10.0 0.00 0.00 0.00 78 1027.7
20181119171025 45 53 4.0 12.0 0.00 0.00 0.00 78 1027.7
20181119170523 45 87 7.0 12.0 0.00 0.00 0.00 77 1027.7
20181119170024 45 93 7.0 12.0 0.00 0.00 0.00 76 1027.8
20181119165524 45 100 6.0 12.0 0.00 0.00 0.00 75 1027.9
20181119165025 46 87 7.0 12.0 0.00 0.00 0.00 74 1027.7
20181119164524 46 105 6.0 10.0 0.00 0.00 0.00 73 1027.7
20181119164024 46 97 5.0 10.0 0.00 0.00 0.00 74 1027.7
20181119163523 46 113 5.0 13.0 0.00 0.00 0.00 73 1027.7
20181119163025 46 94 7.0 13.0 0.00 0.00 0.00 74 1027.8
20181119162523 46 100 7.0 13.0 0.00 0.00 0.00 74 1027.8
20181119162025 46 104 7.0 13.0 0.00 0.00 0.00 75 1027.9
20181119161523 46 89 7.0 15.0 0.00 0.00 0.00 76 1027.9
20181119161024 46 89 9.0 15.0 0.00 0.00 0.00 76 1027.9
20181119160523 46 96 8.0 14.0 0.00 0.00 0.00 77 1027.9
20181119160025 46 105 5.0 13.0 0.00 0.00 0.00 77 1027.9
20181119155524 46 95 5.0 14.0 0.00 0.00 0.00 77 1027.9
20181119155024 46 96 8.0 14.0 0.00 0.00 0.00 78 1027.9
20181119154524 46 94 5.0 13.0 0.00 0.00 0.00 78 1027.9
20181119154025 46 98 6.0 14.0 0.00 0.00 0.00 78 1027.9
20181119153523 46 94 6.0 14.0 0.00 0.00 0.00 77 1027.9
20181119153025 47 91 9.0 16.0 0.00 0.00 0.00 76 1027.9
20181119152523 47 87 7.0 17.0 0.00 0.00 0.00 74 1027.9
20181119152025 47 91 11.0 17.0 0.00 0.00 0.00 74 1027.9
20181119151523 47 94 10.0 17.0 0.00 0.00 0.00 73 1028.0
20181119151024 47 76 12.0 17.0 0.00 0.00 0.00 71 1028.0
20181119150523 47 88 9.0 16.0 0.00 0.00 0.00 71 1028.0
20181119150024 47 82 6.0 15.0 0.00 0.00 0.00 71 1027.9
20181119145524 47 78 9.0 15.0 0.00 0.00 0.00 72 1028.0
20181119145024 47 75 9.0 16.0 0.00 0.00 0.00 71 1028.0
20181119144523 47 80 12.0 16.0 0.00 0.00 0.00 71 1028.0
20181119144025 47 84 10.0 16.0 0.00 0.00 0.00 71 1028.0
20181119143524 47 74 10.0 16.0 0.00 0.00 0.00 71 1028.0
20181119143024 47 81 10.0 20.0 0.00 0.00 0.00 71 1028.1
20181119142523 47 86 10.0 20.0 0.00 0.00 0.00 70 1028.2
20181119142024 47 78 7.0 15.0 0.00 0.00 0.00 70 1028.1
20181119141523 47 84 6.0 17.0 0.00 0.00 0.00 70 1028.2
20181119141025 47 85 9.0 17.0 0.00 0.00 0.00 70 1028.3
20181119140523 47 88 9.0 17.0 0.00 0.00 0.00 71 1028.4
20181119140026 47 91 9.0 15.0 0.00 0.00 0.00 71 1028.4
20181119135523 47 91 10.0 15.0 0.00 0.00 0.00 71 1028.5
20181119135025 47 90 8.0 15.0 0.00 0.00 0.00 73 1028.5
20181119134524 47 89 9.0 13.0 0.00 0.00 0.00 73 1028.6
20181119134024 47 98 9.0 14.0 0.00 0.00 0.00 75 1028.6
20181119133523 47 84 7.0 14.0 0.00 0.00 0.00 75 1028.7
20181119133026 47 98 9.0 14.0 0.00 0.00 0.00 76 1028.7
20181119132523 47 113 6.0 12.0 0.00 0.00 0.00 76 1028.8
20181119132024 47 100 7.0 12.0 0.00 0.00 0.00 75 1028.8
20181119131523 47 91 6.0 14.0 0.00 0.00 0.00 75 1028.9
20181119131024 47 106 7.0 18.0 0.00 0.00 0.00 74 1029.0
20181119130523 47 85 9.0 18.0 0.00 0.00 0.00 73 1029.0
20181119130023 47 85 12.0 18.0 0.00 0.00 0.00 73 1029.0
20181119125523 47 88 9.0 15.0 0.00 0.00 0.00 73 1029.0
20181119125024 47 107 6.0 13.0 0.00 0.00 0.00 73 1029.0
20181119124524 47 89 5.0 13.0 0.00 0.00 0.00 73 1029.0
20181119124024 47 85 7.0 15.0 0.00 0.00 0.00 72 1029.1
20181119123524 47 99 6.0 15.0 0.00 0.00 0.00 72 1029.1
20181119123025 47 104 7.0 12.0 0.00 0.00 0.00 71 1029.1
20181119122523 47 101 7.0 12.0 0.00 0.00 0.00 72 1029.1
20181119122024 47 87 5.0 10.0 0.00 0.00 0.00 73 1029.1
20181119121523 47 90 5.0 10.0 0.00 0.00 0.00 73 1029.2
20181119121024 47 102 6.0 10.0 0.00 0.00 0.00 74 1029.2
20181119120523 47 87 6.0 10.0 0.00 0.00 0.00 74 1029.3
20181119120025 47 96 6.0 12.0 0.00 0.00 0.00 73 1029.3
20181119115523 47 102 8.0 14.0 0.00 0.00 0.00 73 1029.4
20181119115025 47 106 6.0 14.0 0.00 0.00 0.00 73 1029.4
20181119114524 47 101 7.0 12.0 0.00 0.00 0.00 73 1029.4
20181119114024 47 103 7.0 14.0 0.00 0.00 0.00 74 1029.5
20181119113524 47 101 9.0 14.0 0.00 0.00 0.00 74 1029.6
20181119113025 47 88 7.0 12.0 0.00 0.00 0.00 75 1029.6
20181119112524 47 98 8.0 12.0 0.00 0.00 0.00 76 1029.6
20181119112024 47 91 6.0 12.0 0.00 0.00 0.00 76 1029.6
20181119111524 47 91 7.0 12.0 0.00 0.00 0.00 77 1029.7
20181119111024 47 100 5.0 9.0 0.00 0.00 0.00 77 1029.8
20181119110523 47 94 4.0 10.0 0.00 0.00 0.00 77 1029.8
20181119110025 47 93 6.0 12.0 0.00 0.00 0.00 77 1029.9
20181119105524 47 104 3.0 12.0 0.00 0.00 0.00 77 1029.9
20181119105024 47 91 6.0 12.0 0.00 0.00 0.00 77 1029.9
20181119104524 47 108 5.0 12.0 0.00 0.00 0.00 77 1029.9
20181119104025 47 99 6.0 12.0 0.00 0.00 0.00 77 1030.0
20181119103523 47 96 7.0 12.0 0.00 0.00 0.00 77 1030.1
20181119103024 47 108 6.0 13.0 0.00 0.00 0.00 77 1030.0
20181119102524 47 94 5.0 13.0 0.00 0.00 0.00 77 1030.0
20181119102024 47 100 5.0 12.0 0.00 0.00 0.00 78 1030.0
20181119101523 47 94 6.0 12.0 0.00 0.00 0.00 78 1029.9
20181119101024 46 96 6.0 12.0 0.00 0.00 0.00 78 1030.0
20181119100523 46 123 5.0 12.0 0.00 0.00 0.00 78 1030.0
20181119100025 46 97 6.0 10.0 0.00 0.00 0.00 79 1030.1
20181119095524 46 87 6.0 9.0 0.00 0.00 0.00 80 1030.1
20181119095024 46 98 3.0 9.0 0.00 0.00 0.00 80 1030.1
20181119094523 46 96 5.0 9.0 0.00 0.00 0.00 80 1030.2
20181119094024 46 97 5.0 10.0 0.00 0.00 0.00 80 1030.2
20181119093524 46 102 6.0 10.0 0.00 0.00 0.00 80 1030.1
20181119093024 47 84 5.0 12.0 0.00 0.00 0.00 80 1030.1
20181119092525 47 99 6.0 12.0 0.00 0.00 0.00 80 1030.1
20181119092025 47 95 7.0 12.0 0.00 0.00 0.00 79 1030.1
20181119091523 47 103 7.0 13.0 0.00 0.00 0.00 79 1030.1
20181119091024 47 102 7.0 13.0 0.00 0.00 0.00 79 1030.1
20181119090523 47 84 7.0 14.0 0.00 0.00 0.00 79 1030.1
20181119090024 47 84 9.0 14.0 0.00 0.00 0.00 79 1030.1
20181119085524 47 108 7.0 14.0 0.00 0.00 0.00 79 1030.0
20181119085024 47 100 7.0 13.0 0.00 0.00 0.00 79 1030.2
20181119084523 46 109 7.0 12.0 0.00 0.00 0.00 79 1030.1
20181119084024 46 90 8.0 12.0 0.00 0.00 0.00 79 1030.1
20181119083523 46 87 6.0 12.0 0.00 0.00 0.00 79 1030.0
20181119083024 46 97 6.0 12.0 0.00 0.00 0.00 78 1030.1
20181119082523 46 107 5.0 8.0 0.00 0.00 0.00 78 1030.0
20181119082024 46 107 3.0 8.0 0.00 0.00 0.00 78 1030.0
20181119081523 46 109 3.0 7.0 0.00 0.00 0.00 78 1030.1
20181119081023 46 92 3.0 7.0 0.00 0.00 0.00 78 1030.1
20181119080523 46 107 5.0 9.0 0.00 0.00 0.00 78 1030.1
20181119080025 46 103 5.0 9.0 0.00 0.00 0.00 78 1030.1
20181119075523 46 98 7.0 10.0 0.00 0.00 0.00 79 1030.1
20181119075024 46 85 6.0 16.0 0.00 0.00 0.00 79 1030.1
20181119074522 46 93 9.0 16.0 0.00 0.00 0.00 79 1030.1
20181119074024 46 91 9.0 13.0 0.00 0.00 0.00 79 1030.2